TimePST,TemperatureF,Dew PointF,Humidity,Sea Level PressureIn,VisibilityMPH,Wind Direction,Wind SpeedMPH,Gust SpeedMPH,PrecipitationIn,Events,Conditions,WindDirDegrees,DateUTC
12:51 AM,62.1,55.0,78,30.09,10.0,North,3.5,-,N/A,,Overcast,350,2013-01-25 08:51:00
1:51 AM,60.1,55.0,83,30.10,10.0,NNW,5.8,-,0.00,,Overcast,330,2013-01-25 09:51:00
2:51 AM,61.0,55.0,81,30.08,10.0,Variable,4.6,-,N/A,,Overcast,0,2013-01-25 10:51:00
3:51 AM,61.0,55.0,81,30.06,10.0,Calm,Calm,-,N/A,,Overcast,0,2013-01-25 11:51:00
4:51 AM,62.1,55.0,78,30.06,10.0,Calm,Calm,-,N/A,,Overcast,0,2013-01-25 12:51:00
5:51 AM,61.0,55.9,83,30.09,8.0,Calm,Calm,-,0.01,Rain,Light Rain,0,2013-01-25 13:51:00
6:51 AM,60.1,57.0,90,30.12,5.0,East,3.5,-,0.07,Rain,Rain,100,2013-01-25 14:51:00
7:51 AM,60.1,55.9,86,30.12,6.0,East,3.5,-,0.10,Rain,Light Rain,100,2013-01-25 15:51:00
8:51 AM,61.0,55.0,81,30.13,10.0,Calm,Calm,-,0.03,Rain,Light Rain,0,2013-01-25 16:51:00
9:51 AM,62.1,55.9,80,30.12,10.0,East,4.6,-,0.01,,Overcast,90,2013-01-25 17:51:00
10:51 AM,62.1,57.0,84,30.11,5.0,East,5.8,-,0.03,Rain,Light Rain,90,2013-01-25 18:51:00
11:51 AM,62.1,57.9,86,30.07,7.0,South,5.8,-,0.02,Rain,Light Rain,180,2013-01-25 19:51:00
12:51 PM,63.0,57.9,84,30.03,7.0,ESE,5.8,-,0.02,Rain,Light Rain,110,2013-01-25 20:51:00
1:51 PM,63.0,57.9,84,30.02,6.0,Calm,Calm,-,0.04,Rain,Light Rain,0,2013-01-25 21:51:00
2:51 PM,64.0,57.9,80,29.98,7.0,NE,3.5,-,0.05,Rain,Light Rain,50,2013-01-25 22:51:00
3:51 PM,64.0,57.9,80,29.96,9.0,Calm,Calm,-,0.01,Rain,Light Rain,0,2013-01-25 23:51:00
4:51 PM,63.0,59.0,87,29.97,6.0,South,5.8,-,0.03,Rain,Light Rain,170,2013-01-26 00:51:00
5:51 PM,62.1,59.0,90,29.99,6.0,Calm,Calm,-,0.07,Rain,Light Rain,0,2013-01-26 01:51:00
6:51 PM,62.1,59.0,90,29.99,4.0,Calm,Calm,-,0.07,Rain,Light Rain,0,2013-01-26 02:51:00
7:51 PM,62.1,59.0,90,29.97,10.0,SE,6.9,-,0.06,Rain,Light Rain,140,2013-01-26 03:51:00
8:51 PM,61.0,59.0,93,29.97,5.0,NW,5.8,-,0.05,Rain,Light Rain,310,2013-01-26 04:51:00
8:55 PM,60.8,57.2,88,29.96,5.0,NW,4.6,-,0.00,Rain,Light Rain,310,2013-01-26 04:55:00
9:21 PM,60.8,57.2,88,29.97,5.0,NNW,3.5,-,0.01,Rain,Light Rain,330,2013-01-26 05:21:00
9:51 PM,60.1,57.9,93,29.99,5.0,NNW,3.5,-,0.03,Rain,Light Rain,340,2013-01-26 05:51:00
9:57 PM,60.8,57.2,88,29.99,4.0,NNW,4.6,-,0.01,Rain,Light Rain,330,2013-01-26 05:57:00
10:44 PM,60.8,57.2,88,29.97,5.0,Calm,Calm,-,0.07,Rain,Light Rain,0,2013-01-26 06:44:00
10:51 PM,61.0,57.9,90,29.97,6.0,ENE,3.5,-,0.08,Rain,Light Rain,70,2013-01-26 06:51:00
11:16 PM,60.8,57.2,88,29.98,4.0,West,3.5,-,0.02,Rain,Light Rain,270,2013-01-26 07:16:00
11:46 PM,60.8,59.0,94,29.97,5.0,Calm,Calm,-,0.06,Rain,Light Rain,0,2013-01-26 07:46:00
11:51 PM,61.0,59.0,93,29.98,5.0,Calm,Calm,-,0.06,Rain,Light Rain,0,2013-01-26 07:51:00